Content
SEND FEEDBACK

Daily
Averages
Monthly
Summary
Canada

STEVESTON, BRITISH COLUMBIA


Home > North America > Canada > British Columbia
Elevation: 7 feet     Latitude: 49 10N     Longitude: 123 10W

WEATHER
 
SELECT A DAY
Number of Records: 252,915;   Date Range: 5/15/97 - 10/19/14
 
SHARE

PRINT THIS DATA

[ ← Previous Day ]
WEATHER ALMANAC - FEBRUARY 1, 2013
[ Next Day → ]
[ °C ]   °F
Weather ElementAverageHighLow
Temperature44.1 °F46.4 °F (1:15 pm)41 °F (9:55 pm)
Dewpoint42.9 °F44.6 °F (1:15 am)41 °F (4:35 pm)
Humidity95.5 %100 % (1:15 am)87 % (1:15 pm)
Barometer30.39 in30.42 in (10:35 am)30.32 in (12:35 am)
Wind Speed1.6 mph6.9 mph (11:15 pm)
Weather ElementAverage
Visibility9.2 mi
Wind DirectionESE (106.2 °)

Weather ElementTotal
Precipitation---
Heating Degree Days21.3 (Base 65)
Averaged from 68 records on February 1, 2013
WEATHER CONDITIONS BREAKOUT
WIND DIRECTION BREAKOUT
WEATHER BY HOUR - FEBRUARY 1, 2013
[ °C ]   °F
Local TimeTemperatureDewpointHumidityBarometerVisibilityWind DirectionWind SpeedGust SpeedPrecipitationEventsConditions
12:35 AM44.6 °F42.8 °F93 %30.32 in10.0 miCalmOvercast
12:55 AM44.6 °F42.8 °F93 %30.32 in10.0 miCalmOvercast
1:15 AM44.6 °F44.6 °F100 %30.33 in10.0 miCalmOvercast
1:35 AM44.6 °F44.6 °F100 %30.33 in10.0 miCalmOvercast
1:55 AM44.6 °F44.6 °F100 %30.34 in10.0 miCalmOvercast
2:15 AM44.6 °F44.6 °F100 %30.35 in10.0 miCalmOvercast
2:35 AM44.6 °F44.6 °F100 %30.35 in8.0 miCalmOvercast
2:55 AM44.6 °F44.6 °F100 %30.35 in8.0 miWSW (250°)3.5 mphOvercast
3:15 AM44.6 °F42.8 °F93 %30.35 in8.0 miCalmMostly Cloudy
3:35 AM44.6 °F42.8 °F93 %30.35 in7.0 miCalmMostly Cloudy
3:55 AM44.6 °F42.8 °F93 %30.36 in9.0 miCalmMostly Cloudy
4:35 AM44.6 °F42.8 °F93 %30.36 in7.0 miCalmMostly Cloudy
4:55 AM44.6 °F42.8 °F93 %30.37 in9.0 miCalmOvercast
5:15 AM44.6 °F42.8 °F93 %30.37 in10.0 miCalmOvercast
5:55 AM42.8 °F42.8 °F100 %30.36 in9.0 miCalmOvercast
6:15 AM42.8 °F42.8 °F100 %30.37 in6.0 miCalmOvercast
6:35 AM42.8 °F42.8 °F100 %30.37 in7.0 miCalmOvercast
6:55 AM42.8 °F42.8 °F100 %30.37 in7.0 miCalmOvercast
7:15 AM42.8 °F42.8 °F100 %30.37 in7.0 miCalmOvercast
7:35 AM42.8 °F42.8 °F100 %30.37 in7.0 miCalmOvercast
7:55 AM42.8 °F42.8 °F100 %30.37 in5.0 miCalmOvercast
8:15 AM42.8 °F42.8 °F100 %30.38 in7.0 miCalmOvercast
8:35 AM42.8 °F42.8 °F100 %30.39 in6.0 miCalmOvercast
8:55 AM42.8 °F42.8 °F100 %30.39 in5.0 miCalmOvercast
9:15 AM44.6 °F44.6 °F100 %30.40 in5.0 miCalmOvercast
9:35 AM44.6 °F44.6 °F100 %30.40 in9.0 miCalmOvercast
9:55 AM44.6 °F44.6 °F100 %30.41 in10.0 miCalmOvercast
10:15 AM44.6 °F44.6 °F100 %30.41 in10.0 miCalmOvercast
10:35 AM44.6 °F44.6 °F100 %30.42 in10.0 miCalmOvercast
10:55 AM44.6 °F42.8 °F93 %30.42 in10.0 miCalmOvercast
11:15 AM44.6 °F44.6 °F100 %30.42 in9.0 miCalmOvercast
11:35 AM44.6 °F42.8 °F93 %30.42 in10.0 miCalmOvercast
11:55 AM44.6 °F42.8 °F93 %30.41 in10.0 miCalmOvercast
12:15 PM44.6 °F42.8 °F93 %30.41 in10.0 miCalmOvercast
12:35 PM44.6 °F42.8 °F93 %30.41 in10.0 miCalmOvercast
12:55 PM44.6 °F42.8 °F93 %30.41 in10.0 miCalmOvercast
1:15 PM46.4 °F42.8 °F87 %30.40 in10.0 miNorth (360°)3.5 mphOvercast
1:35 PM46.4 °F42.8 °F87 %30.40 in10.0 miNorth (360°)4.6 mphMostly Cloudy
1:55 PM46.4 °F42.8 °F87 %30.40 in10.0 miNorth (360°)3.5 mphPartly Cloudy
2:15 PM46.4 °F42.8 °F87 %30.40 in10.0 miNorth (350°)5.8 mphPartly Cloudy
2:35 PM46.4 °F44.6 °F93 %30.40 in10.0 miNNW (330°)3.5 mphMostly Cloudy
2:55 PM46.4 °F42.8 °F87 %30.39 in10.0 miNNW (340°)5.8 mphOvercast
3:15 PM44.6 °F42.8 °F93 %30.40 in10.0 miNNW (330°)5.8 mphOvercast
3:35 PM44.6 °F42.8 °F93 %30.40 in10.0 miNNW (330°)4.6 mphOvercast
3:55 PM44.6 °F42.8 °F93 %30.40 in10.0 miNNW (340°)4.6 mphPartly Cloudy
4:15 PM44.6 °F42.8 °F93 %30.39 in10.0 miNNW (340°)4.6 mphClear
4:35 PM44.6 °F41.0 °F87 %30.39 in10.0 miCalmClear
4:55 PM44.6 °F42.8 °F93 %30.39 in10.0 miCalmPartly Cloudy
5:15 PM44.6 °F42.8 °F93 %30.40 in10.0 miCalmMostly Cloudy
5:35 PM44.6 °F42.8 °F93 %30.40 in10.0 miCalmOvercast
5:55 PM42.8 °F42.8 °F100 %30.40 in10.0 miCalmOvercast
6:15 PM42.8 °F42.8 °F100 %30.40 in10.0 miNNW (330°)3.5 mphOvercast
6:35 PM44.6 °F42.8 °F93 %30.40 in10.0 miNorth (360°)5.8 mphOvercast
6:55 PM44.6 °F42.8 °F93 %30.41 in10.0 miNorth (360°)4.6 mphOvercast
7:15 PM44.6 °F42.8 °F93 %30.41 in10.0 miNNW (340°)4.6 mphOvercast
7:35 PM44.6 °F42.8 °F93 %30.41 in10.0 miNorth (350°)5.8 mphOvercast
7:55 PM44.6 °F42.8 °F93 %30.41 in10.0 miCalmOvercast
8:15 PM44.6 °F42.8 °F93 %30.41 in10.0 miCalmOvercast
8:35 PM44.6 °F41.0 °F87 %30.40 in10.0 miNNE (20°)3.5 mphMostly Cloudy
8:55 PM42.8 °F41.0 °F93 %30.40 in10.0 miCalmPartly Cloudy
9:15 PM42.8 °F41.0 °F93 %30.40 in10.0 miCalmMostly Cloudy
9:35 PM42.8 °F41.0 °F93 %30.40 in10.0 miNorth (10°)3.5 mphOvercast
9:55 PM41.0 °F41.0 °F100 %30.40 in10.0 miNorth (360°)3.5 mphMostly Cloudy
10:15 PM41.0 °F41.0 °F100 %30.40 in10.0 miCalmMostly Cloudy
10:35 PM41.0 °F41.0 °F100 %30.41 in10.0 miNorth (350°)4.6 mphOvercast
10:55 PM42.8 °F42.8 °F100 %30.41 in10.0 miNorth (350°)5.8 mphOvercast
11:15 PM42.8 °F42.8 °F100 %30.41 in10.0 miNorth (350°)6.9 mphOvercast
11:55 PM42.8 °F42.8 °F100 %30.40 in8.0 miNorth (350°)4.6 mphOvercast
Hourly data recorded from CZBB, located miles away from Steveston, British Columbia







STORIES FROM OUR PARTNERS